Simultaneous Nadir Overpasses (SNOs) Predictions

Prediction of SNOs between METOP-B and NOAA-19 Satellite Orbit:

Table of predicted SNOs for the next 14.0 days since TLE Epoch: 12/24/2022
Index Date (METOP-B) Time (METOP-B) Lat,Lon (METOP-B) SZA (METOP-B ) Date (NOAA-19) Time (NOAA-19) Lat,Lon (NOAA-19) SZA (NOAA-19 ) Distance(km) Time Diff (sec)
1 01/04/2023 01:31:48 -80.93, 12.16 74.89 01/04/2023 01:30:36 -80.92, 12.11 74.93 1.15 72
2 01/04/2023 02:22:29 80.92, 179.36 105.09 01/04/2023 02:21:30 80.92, 179.53 105.09 2.99 59
3 01/04/2023 03:13:10 -80.92, -13.33 74.92 01/04/2023 03:12:35 -80.92, -13.19 74.92 2.57 35
4 01/04/2023 04:03:51 80.91, 153.87 105.07 01/04/2023 04:03:30 80.92, 153.86 105.06 0.67 21
5 01/04/2023 04:54:32 -80.91, -38.82 74.94 01/04/2023 04:54:35 -80.92, -38.86 74.94 1.00 3
6 01/04/2023 05:45:12 80.92, 128.74 105.09 01/04/2023 05:45:29 80.92, 128.57 105.07 3.18 17
7 01/04/2023 06:35:53 -80.92, -63.95 74.93 01/04/2023 06:36:33 -80.92, -63.78 74.90 3.02 40



Historial Predications of SNOs between METOP-B and NOAA-19
